Location: Foligno
(42.9600°N, 12.7050°E)
Time: 02:05:06
(UTC+02:00)

ISS - Pass Details

Date: 17 May 2018
Orbit: 402 x 407 km, 51.6° (Epoch: 26 May)

Event Time Altitude Azimuth Distance (km) Brightness Sun altitude
Exits shadow 01:06:20 12° 45° (NE) 1,350 -0.7 -27.8°
Drops below altitude 10° 01:06:36 10° 46° (NE) 1,457 -0.5 -27.8°
Sets 01:08:46 0° 55° (NE) 2,319 0.5 -27.8°
